Joliet, IL

3:17 AM CDT on June 28, 2017 (GMT -0500)
Joliet Regional

Weather History for KJOT - January, 2014

Change the Weather History Date:

Friday, January 31, 2014

  Actual Average (KARR) Record (KARR)
Temperature  
Mean Temperature 18 °F -  
Max Temperature 21 °F 30 °F 56 °F (2012)
Min Temperature 17 °F 15 °F -10 °F (2004)
Degree Days  
Heating Degree Days 46    
Moisture  
Dew Point 13 °F    
Average Humidity 79    
Maximum Humidity 93    
Minimum Humidity 69    
Precipitation  
Precipitation 0.01 in - - ()
Sea Level Pressure  
Sea Level Pressure 30.10 in    
Wind  
Wind Speed 4 mph (WNW)    
Max Wind Speed 7 mph    
Max Gust Speed -    
Visibility 8 miles    
Events Snow    
Averages and records for this station are not official NWS values.
T = Trace of Precipitation, MM = Missing Value Source: NWS Daily Summary

Daily Weather History Graph

Daily Weather History Graph

Search for Another Location

Airport or City:

Trip Planner

Search our weather history database for the weather conditions in past years. The results will help you decide how hot, cold, wet, or windy it might be!

Date:

Astronomy

Jan. 31, 2014 Rise Set
Actual Time 7:05 AM CST 5:07 PM CST
Civil Twilight 6:35 AM CST 5:36 PM CST
Nautical Twilight 6:02 AM CST 6:10 PM CST
Astronomical Twilight 5:30 AM CST 6:42 PM CST
Moon 7:13 AM CST (1/31) 6:33 PM CST (1/31)
Length of Visible Light 11h 00m
Length of Day
10h 02m
New Moon, 1% of the Moon is Illuminated
Jan 31
New Moon
Feb 6
First Quarter
Feb 14
Full
Feb 22
Last Quarter
Mar 1
New

Hourly Weather History & Observations

Time (CST) Temp. Windchill Dew Point Humidity Pressure Visibility Wind Dir Wind Speed Gust Speed Precip Events Conditions
12:15 AM 19.4 °F 12.8 °F 14.7 °F 82% 29.96 in 10.0 mi West 4.6 mph - N/A   Clear
12:35 AM 19.2 °F 10.2 °F 14.4 °F 81% 29.96 in 10.0 mi West 6.9 mph - N/A   Clear
12:55 AM 18.9 °F 12.1 °F 14.0 °F 81% 29.97 in 10.0 mi WSW 4.6 mph - N/A   Clear
1:15 AM 18.1 °F 10.0 °F 13.1 °F 81% 29.98 in 10.0 mi West 5.8 mph - N/A   Clear
1:35 AM 17.6 °F 10.7 °F 13.1 °F 83% 30.00 in 10.0 mi West 4.6 mph - N/A   Clear
1:55 AM 17.6 °F 12.3 °F 13.1 °F 83% 30.01 in 10.0 mi West 3.5 mph - N/A   Clear
2:15 AM 17.6 °F 12.3 °F 13.1 °F 83% 30.01 in 10.0 mi West 3.5 mph - N/A   Clear
2:35 AM 18.0 °F 12.7 °F 13.1 °F 81% 30.02 in 10.0 mi West 3.5 mph - N/A   Clear
2:55 AM 18.0 °F 12.7 °F 13.1 °F 81% 30.02 in 10.0 mi West 3.5 mph - N/A   Clear
3:15 AM 18.1 °F 11.3 °F 13.1 °F 81% 30.02 in 10.0 mi WNW 4.6 mph - N/A   Clear
3:35 AM 18.3 °F 11.5 °F 13.1 °F 80% 30.02 in 10.0 mi WNW 4.6 mph - N/A   Clear
3:55 AM 18.5 °F 10.4 °F 13.1 °F 79% 30.02 in 10.0 mi WNW 5.8 mph - N/A   Clear
4:15 AM 18.5 °F 11.7 °F 12.9 °F 79% 30.02 in 10.0 mi WNW 4.6 mph - N/A   Clear
4:35 AM 18.5 °F 10.4 °F 12.7 °F 78% 30.04 in 10.0 mi WNW 5.8 mph - N/A   Clear
4:55 AM 18.5 °F 10.4 °F 12.4 °F 77% 30.04 in 10.0 mi NW 5.8 mph - N/A   Scattered Clouds
5:15 AM 18.3 °F 9.1 °F 12.2 °F 77% 30.05 in 10.0 mi NW 6.9 mph - N/A   Clear
5:35 AM 18.0 °F 12.7 °F 11.8 °F 77% 30.05 in 10.0 mi NNW 3.5 mph - N/A   Clear
5:55 AM 17.6 °F 10.7 °F 11.8 °F 78% 30.06 in 10.0 mi NW 4.6 mph - N/A   Clear
6:15 AM 17.6 °F 10.7 °F 11.7 °F 78% 30.08 in 10.0 mi NW 4.6 mph - N/A   Clear
6:35 AM 17.6 °F 12.3 °F 11.7 °F 78% 30.08 in 10.0 mi NW 3.5 mph - N/A   Clear
6:55 AM 17.6 °F 12.3 °F 11.7 °F 78% 30.10 in 10.0 mi WNW 3.5 mph - N/A   Clear
7:15 AM 17.6 °F - 11.3 °F 76% 30.11 in 10.0 mi Calm Calm - N/A   Clear
7:35 AM 17.6 °F - 11.5 °F 77% 30.10 in 10.0 mi Calm Calm - N/A   Clear
7:55 AM 18.0 °F - 10.9 °F 74% 30.11 in 10.0 mi Calm Calm - N/A   Clear
8:15 AM 18.1 °F - 10.2 °F 71% 30.12 in 10.0 mi Calm Calm - N/A   Clear
8:35 AM 18.5 °F - 10.4 °F 71% 30.14 in 10.0 mi Calm Calm - N/A   Clear
8:55 AM 18.5 °F 13.3 °F 11.1 °F 73% 30.14 in 10.0 mi West 3.5 mph - N/A   Clear
9:15 AM 18.3 °F 13.1 °F 11.1 °F 73% 30.15 in 10.0 mi West 3.5 mph - N/A   Clear
9:35 AM 18.3 °F 11.5 °F 11.1 °F 73% 30.15 in 10.0 mi West 4.6 mph - N/A   Clear
9:55 AM 18.1 °F 12.9 °F 10.8 °F 73% 30.15 in 10.0 mi West 3.5 mph - N/A   Clear
10:15 AM 18.5 °F 10.4 °F 10.8 °F 72% 30.16 in 10.0 mi West 5.8 mph - N/A   Clear
10:35 AM 18.5 °F 9.3 °F 10.6 °F 71% 30.17 in 10.0 mi WNW 6.9 mph - N/A   Clear
10:55 AM 18.3 °F 10.2 °F 10.8 °F 72% 30.18 in 10.0 mi West 5.8 mph - N/A   Clear
11:15 AM 18.5 °F 10.4 °F 10.6 °F 71% 30.18 in 10.0 mi West 5.8 mph - N/A   Clear
11:35 AM 18.5 °F 13.3 °F 10.6 °F 71% 30.18 in 10.0 mi West 3.5 mph - N/A   Clear
11:55 AM 18.5 °F 11.7 °F 10.8 °F 72% 30.17 in 10.0 mi West 4.6 mph - N/A   Clear
12:15 PM 18.5 °F 11.7 °F 10.2 °F 70% 30.16 in 10.0 mi West 4.6 mph - N/A   Clear
12:35 PM 18.7 °F 11.9 °F 10.4 °F 70% 30.15 in 10.0 mi West 4.6 mph - N/A   Clear
12:55 PM 19.0 °F - 10.8 °F 70% 30.15 in 10.0 mi Calm Calm - N/A   Clear
1:15 PM 19.2 °F 14.1 °F 11.1 °F 71% 30.15 in 10.0 mi WNW 3.5 mph - N/A   Clear
1:35 PM 19.4 °F 14.3 °F 11.1 °F 70% 30.15 in 10.0 mi West 3.5 mph - N/A   Scattered Clouds
1:55 PM 19.4 °F - 11.1 °F 70% 30.14 in 10.0 mi Calm Calm - N/A   Mostly Cloudy
2:15 PM 19.8 °F - 10.9 °F 69% 30.14 in 10.0 mi Calm Calm - N/A   Overcast
2:35 PM 19.9 °F - 11.3 °F 69% 30.14 in 10.0 mi Calm Calm - N/A   Scattered Clouds
2:55 PM 20.1 °F - 11.7 °F 70% 30.13 in 10.0 mi Calm Calm - N/A   Clear
3:15 PM 19.9 °F - 12.2 °F 72% 30.14 in 7.0 mi Calm Calm - N/A   Clear
3:35 PM 20.3 °F - 12.4 °F 71% 30.13 in 10.0 mi Calm Calm - N/A   Clear
3:55 PM 20.1 °F 15.2 °F 12.4 °F 72% 30.14 in 10.0 mi WNW 3.5 mph - N/A   Clear
4:15 PM 19.8 °F 14.7 °F 12.7 °F 74% 30.13 in 5.0 mi North 3.5 mph - N/A Snow Light Snow
4:35 PM 20.1 °F 12.3 °F 12.9 °F 74% 30.13 in 7.0 mi North 5.8 mph - N/A   Scattered Clouds
4:55 PM 19.9 °F 12.1 °F 13.8 °F 77% 30.12 in 5.0 mi North 5.8 mph - N/A Snow Light Snow
5:15 PM 19.9 °F 14.9 °F 14.2 °F 78% 30.12 in 3.0 mi NNE 3.5 mph - N/A Snow Light Snow
5:35 PM 19.9 °F 14.9 °F 14.5 °F 80% 30.11 in 5.0 mi North 3.5 mph - N/A Snow Light Snow
5:55 PM 19.8 °F 14.7 °F 14.9 °F 81% 30.11 in 7.0 mi NNE 3.5 mph - N/A Snow Light Snow
6:15 PM 20.1 °F - 14.9 °F 80% 30.12 in 7.0 mi Calm Calm - N/A Snow Light Snow
6:35 PM 20.3 °F - 14.9 °F 80% 30.14 in 10.0 mi Calm Calm - N/A   Scattered Clouds
6:55 PM 19.9 °F - 15.3 °F 82% 30.13 in 1.5 mi Calm Calm - N/A Snow Light Snow
7:15 PM 19.6 °F - 16.0 °F 86% 30.13 in 1.2 mi Calm Calm - N/A Snow Light Snow
7:35 PM 19.4 °F - 16.5 °F 89% 30.12 in 1.5 mi Calm Calm - N/A   Overcast
7:55 PM 19.9 °F - 16.9 °F 88% 30.13 in 1.8 mi Calm Calm - N/A Snow Light Snow
8:15 PM 19.4 °F - 16.7 °F 89% 30.13 in 2.5 mi Calm Calm - N/A Snow Light Snow
8:35 PM 19.6 °F - 17.1 °F 90% 30.12 in 4.0 mi Calm Calm - N/A Snow Light Snow
8:55 PM 19.8 °F - 17.1 °F 89% 30.12 in 4.0 mi Calm Calm - N/A   Mostly Cloudy
9:15 PM 19.9 °F - 17.2 °F 89% 30.11 in 4.0 mi Calm Calm - N/A   Scattered Clouds
9:35 PM 20.1 °F - 17.6 °F 90% 30.11 in 1.8 mi Calm Calm - N/A Snow Light Snow
9:55 PM 20.1 °F - 18.0 °F 91% 30.11 in 0.8 mi Calm Calm - N/A   Overcast
10:15 PM 20.3 °F - 18.5 °F 93% 30.10 in 1.2 mi Calm Calm - N/A   Overcast
10:35 PM 20.3 °F 15.4 °F 18.5 °F 93% 30.10 in 1.0 mi NNE 3.5 mph - 0.01 in   Overcast
10:55 PM 20.5 °F - 18.7 °F 93% 30.09 in 0.8 mi Calm Calm - 0.01 in   Overcast
11:15 PM 20.7 °F - 18.9 °F 93% 30.08 in 1.5 mi Calm Calm - N/A Snow Light Snow
11:35 PM 20.8 °F - 18.9 °F 92% 30.08 in 2.0 mi Calm Calm - N/A Snow Light Snow
11:55 PM 21.0 °F - 19.0 °F 92% 30.09 in 4.0 mi Calm Calm - N/A Snow Light Snow